Home > Weather > El Paso > Past weeks

Flag for U.S.A. Weather for the Past 2 Weeks in El Paso, Texas, U.S.A.

Now
62 °F

Partly sunny.


Feels Like: 62 °F
Forecast: 28 / 65 °F
Wind: 7 mph from Southwest

Location: El Paso International Airport

Current Time: Feb 7, 2016 at 3:27:02 PM

Latest Report: Feb 7, 2016 at 2:51 PM


Visibility: 10 mi

Pressure: 30.14 "Hg (26.34 "Hg at 1142m altitude)

Humidity: 13%

Dew point: 10 °F

Location of El PasoLocation

Historic Weather in El Paso — Graph

°F

El Paso Temperature Yesterday

Maximum temperature yesterday: 55 °F (at 1:51 PM)
Minimum temperature yesterday: 21 °F (at 6:51 AM)
Average temperature yesterday: 41 °F

High & Low Weather Summary for the Past Weeks

 TemperatureHumidityPressure
High73 °F (Jan 30, 3:51 PM)86% (Feb 1, 10:51 AM)30.48 "Hg (Feb 1, 10:51 AM)
Low21 °F (Feb 6, 6:51 AM)8% (Jan 24, 2:51 PM)29.49 "Hg (Feb 1, 7:51 AM)
Average46 °F33%30.05 "Hg
* Reported Jan 23 1:51 PM — Feb 7 1:51 PM, El Paso, Weather by CustomWeather, © 2016

Note: Actual official high and low records may vary slightly from our data, if they occured in-between our weather recording intervals... More about our weather records

Advertising

El Paso Weather History for the Previous 24 Hours

 ConditionsComfort  
Time TempWeatherWind HumidityBarometerVisibility
1:51 PM
Sun, Feb 7
61 °FPartly sunny.6 mph13%30.15 "Hg10 mi
12:51 PM61 °FSunny.3 mph13%30.17 "Hg10 mi
11:51 AM59 °FScattered clouds.10 mph14%30.22 "Hg10 mi
10:51 AM52 °FScattered clouds.5 mph17%30.25 "Hg10 mi
9:51 AM48 °FPartly sunny.3 mph20%30.27 "Hg10 mi
8:51 AM40 °FPartly sunny.6 mph28%30.29 "Hg10 mi
7:51 AM32 °FPartly sunny.No wind41%30.27 "Hg10 mi
6:51 AM28 °FPassing clouds.6 mph45%30.28 "Hg10 mi
5:51 AM28 °FPartly cloudy.5 mph43%30.25 "Hg10 mi
4:51 AM29 °FPartly cloudy.7 mph41%30.23 "Hg10 mi
3:51 AM27 °FPassing clouds.3 mph45%30.24 "Hg10 mi
2:51 AM30 °FPartly cloudy.No wind38%30.24 "Hg10 mi
1:51 AM31 °FPartly cloudy.3 mph36%30.25 "Hg10 mi
12:51 AM32 °FPassing clouds.No wind38%30.27 "Hg10 mi
11:51 PM
Sat, Feb 6
34 °FPassing clouds.5 mph35%30.28 "Hg10 mi
10:51 PM41 °FPassing clouds.3 mph26%30.26 "Hg10 mi
9:51 PM43 °FPassing clouds.5 mph24%30.27 "Hg10 mi
8:51 PM44 °FPassing clouds.7 mph23%30.29 "Hg10 mi
7:51 PM48 °FPassing clouds.3 mph18%30.29 "Hg10 mi
6:51 PM48 °FPassing clouds.3 mph16%30.30 "Hg10 mi
5:51 PM50 °FPassing clouds.5 mph14%30.29 "Hg10 mi
4:51 PM54 °FScattered clouds.No wind12%30.28 "Hg10 mi
3:51 PM55 °FScattered clouds.No wind11%30.28 "Hg10 mi
Weather by CustomWeather, © 2016

See weather overviewHow to use our weather pages